GEFSSGP_con_prob3kmehi_360.txt.gz
EHI
2 1 0 0 0 0 0 0 0 0 0 0 0 1 0 0 0 0 0 0 0 0 1 2 4 5 5 4 3 3 4 4 5 6 6 6 4 3 3 1 0 0 0 1 1 1 2 1 0
2 1 0 0 0 0 0 0 0 0 0 0 1 1 1 0 0 0 0 0 0 0 0 1 3 5 6 5 3 3 3 4 4 5 5 4 3 2 1 0 0 0 0 0 0 1 2 1 0
1 1 0 0 0 0 0 0 0 0 0 0 1 1 1 0 0 0 0 0 0 0 0 1 3 5 6 5 4 4 4 4 4 4 4 3 2 1 0 0 0 1 0 0 0 1 2 1 0
1 1 0 0 0 0 0 0 0 0 0 0 0 0 0 0 0 0 0 0 0 0 0 2 5 7 6 5 4 5 5 5 4 5 6 5 2 1 0 0 0 0 0 0 0 1 2 1 1
0 0 0 0 0 0 0 0 0 0 0 0 0 1 1 1 1 1 0 0 0 0 0 2 6 7 6 4 4 5 6 5 4 6 7 7 5 2 1 0 0 0 0 0 0 1 1 2 2
0 0 0 0 0 1 0 0 0 0 0 0 0 1 2 2 2 1 0 0 0 0 0 1 4 5 4 3 3 5 5 5 4 6 7 7 6 4 2 1 1 0 0 0 0 0 0 2 3
0 0 0 0 0 0 0 0 1 0 0 0 0 1 1 1 1 0 0 0 0 0 0 0 1 2 2 2 4 4 4 4 4 5 7 8 7 6 4 3 2 1 1 1 0 1 1 3 4
1 0 0 0 0 0 0 0 1 1 0 0 0 0 0 0 1 1 0 0 0 0 0 0 0 0 1 1 3 3 3 2 3 3 5 7 6 5 4 3 3 3 2 2 2 2 2 3 4
1 0 0 0 0 0 0 0 1 2 1 0 0 0 1 2 4 4 2 0 0 0 0 0 0 0 0 0 1 1 1 1 1 1 2 3 3 2 1 2 3 3 3 3 3 3 3 2 3
1 0 0 0 0 0 0 0 2 3 2 1 1 2 3 5 6 5 3 1 0 0 0 0 0 0 0 0 0 0 0 0 0 0 0 0 0 0 0 1 1 2 2 2 2 2 2 2 1
0 0 0 0 0 0 0 0 1 2 2 1 2 4 6 7 6 6 4 1 0 0 0 0 0 0 0 0 0 0 0 0 0 0 0 0 0 0 0 0 0 1 1 1 1 1 1 1 0
0 0 0 0 0 0 0 0 0 1 1 1 3 6 8 7 6 5 4 2 0 0 0 0 0 0 0 0 0 0 0 0 0 0 0 0 0 0 0 0 0 0 0 0 0 0 0 0 0
0 0 0 0 0 0 0 0 0 0 0 2 4 6 8 7 5 4 3 1 0 0 0 0 0 0 0 0 0 0 0 0 0 0 0 0 0 0 0 0 0 0 0 0 0 0 0 0 0
0 0 0 0 0 1 1 1 2 2 2 5 7 8 8 7 4 3 2 1 1 0 0 0 0 0 0 0 0 0 0 0 0 0 0 0 0 0 0 0 0 0 0 0 0 0 0 0 0
0 0 0 0 1 1 2 2 3 3 4 7 9 9 8 6 4 3 3 2 2 1 0 0 1 1 1 0 0 0 0 0 0 0 0 0 1 1 0 0 0 0 0 0 0 0 0 0 0
0 0 0 0 1 2 2 2 2 4 5 7 8 8 7 5 3 3 3 3 2 1 1 1 2 3 2 1 1 0 0 0 0 1 1 1 2 2 0 0 0 0 0 0 0 0 0 0 0
0 0 0 0 1 2 2 2 3 4 6 6 5 4 4 4 2 2 3 3 2 1 1 3 4 4 3 3 2 2 2 1 1 2 2 2 3 1 0 0 0 0 0 0 0 0 1 1 0
0 0 0 0 0 1 2 3 4 4 6 5 3 2 3 3 2 2 3 4 3 2 3 5 5 4 3 4 4 5 5 4 3 3 3 2 1 0 0 0 0 0 0 0 0 0 1 1 1
0 0 0 0 1 1 1 3 3 4 6 5 3 2 3 3 4 4 5 6 7 6 6 6 6 4 4 5 6 6 6 6 4 3 3 1 1 0 0 0 0 0 0 0 0 0 1 1 2
0 0 0 0 1 2 1 2 3 5 6 5 4 3 2 3 4 6 7 8 9 10 9 9 7 5 5 6 6 6 6 6 4 3 2 2 1 0 0 0 0 0 0 0 0 0 1 1 2
0 0 0 0 1 1 1 1 3 5 6 5 5 5 4 4 6 7 9 9 10 10 10 10 7 6 6 6 6 6 5 4 3 2 1 1 1 0 0 0 0 0 0 0 0 0 1 2 3
0 0 0 0 0 0 0 0 1 4 5 5 6 6 6 7 8 9 10 11 11 10 9 7 5 5 5 5 5 5 4 3 2 1 0 0 0 0 0 0 0 1 1 1 0 0 1 1 2
0 0 0 0 0 0 0 0 1 2 4 5 7 8 8 8 8 9 9 11 12 11 10 8 5 5 6 6 5 4 4 3 2 1 0 0 0 0 0 0 0 1 2 2 1 1 0 0 1
0 0 0 0 0 0 0 0 0 2 3 4 6 9 9 8 8 9 9 10 11 12 13 11 8 7 7 8 7 6 5 5 3 1 0 0 0 0 0 0 1 2 3 3 3 2 1 0 0
0 0 0 0 0 0 0 0 1 2 2 2 4 7 8 8 9 10 9 8 10 12 12 12 10 9 9 10 9 8 8 7 5 3 2 1 1 1 1 1 1 2 3 3 4 3 2 1 0
0 0 0 0 0 0 0 1 3 4 3 3 5 7 7 7 9 10 8 7 9 11 11 11 10 9 11 11 8 7 8 7 6 4 4 5 5 5 4 3 3 3 3 4 5 4 3 2 1
0 0 0 0 0 0 0 2 3 5 5 5 6 7 6 6 7 7 6 6 8 9 10 9 9 9 10 9 5 3 4 4 4 4 5 6 7 6 6 6 5 4 5 5 5 4 3 3 3
0 0 0 0 0 0 0 1 2 4 5 5 5 4 4 4 3 3 3 5 7 8 8 9 9 9 8 6 3 1 1 2 2 3 4 5 5 6 6 7 6 5 5 6 5 4 3 3 3
0 0 0 0 0 0 0 0 1 2 3 4 3 2 2 2 1 0 1 3 5 6 7 8 9 8 7 6 4 1 0 1 1 1 2 3 3 4 5 6 6 5 4 5 5 5 4 4 4
0 0 0 0 0 0 0 0 0 1 2 4 3 2 2 2 1 0 1 3 5 6 7 8 8 7 7 6 4 2 1 0 0 0 1 3 3 4 5 6 6 5 4 4 5 5 4 5 5

GEFSSGP_con_prob3kmehi_366.txt.gz
EHI
0 1 4 8 8 3 0 0 0 0 0 0 0 0 1 1 2 2 3 3 3 3 3 3 3 2 1 1 1 4 7 10 12 12 11 10 9 7 6 6 6 5 4 6 7 8 7 6 4
0 2 7 9 5 1 0 0 0 0 0 0 0 1 2 3 3 4 4 3 3 2 2 3 3 3 2 2 2 5 8 10 11 12 12 10 8 7 6 6 6 5 4 5 6 8 8 6 4
3 6 10 8 3 0 0 0 0 0 0 0 0 1 3 5 6 6 5 3 1 1 1 3 4 4 3 3 4 6 9 10 10 11 11 9 7 6 6 6 6 6 5 4 4 6 8 6 5
8 11 11 5 1 0 0 0 0 0 0 0 0 1 4 6 6 6 6 4 1 0 0 2 4 4 3 4 5 7 8 7 7 9 9 8 7 6 6 6 6 6 6 4 4 5 6 6 5
12 12 8 2 0 0 0 0 0 0 0 0 0 1 4 6 6 6 6 5 2 1 1 3 5 4 3 4 5 6 5 5 5 7 8 7 6 6 6 6 6 6 6 5 4 5 6 5 4
13 10 4 1 0 0 0 0 0 0 0 0 0 1 3 5 6 6 6 5 3 2 2 3 5 5 4 3 3 3 3 3 5 7 8 7 7 7 7 7 6 6 6 6 5 5 5 4 3
7 5 1 0 0 0 0 0 0 0 0 0 0 0 1 2 5 5 4 4 3 3 3 3 4 4 3 2 2 1 1 2 5 6 7 7 7 8 9 9 7 7 7 7 6 5 4 3 3
1 1 0 0 0 0 0 0 0 0 0 0 0 0 1 2 4 4 3 3 3 3 3 3 3 3 3 2 2 2 1 2 4 6 6 6 6 7 8 8 8 9 9 8 6 5 4 4 5
1 0 0 0 0 0 0 0 0 0 0 1 1 1 2 3 4 4 3 3 3 3 3 3 3 3 3 2 1 2 2 3 5 6 6 5 5 6 6 7 8 9 9 8 7 6 6 6 7
1 0 0 0 0 0 0 0 0 0 0 1 3 4 4 5 5 4 3 3 3 3 3 3 3 4 3 1 0 1 2 3 4 3 5 5 5 5 5 6 6 7 7 8 8 7 7 7 7
1 0 0 0 0 0 0 1 1 0 1 2 5 8 7 5 5 4 3 3 3 3 3 3 4 4 3 1 0 0 2 3 2 2 3 4 4 4 4 4 4 4 5 6 8 7 6 5 4
0 0 0 0 0 0 0 1 2 2 2 3 6 9 8 7 6 4 3 3 3 3 4 4 5 5 3 1 0 0 1 2 1 1 1 2 3 2 3 3 4 3 3 4 5 5 4 3 3
0 0 0 0 0 0 0 2 3 3 3 4 5 6 7 8 8 5 4 4 5 5 5 6 7 7 4 2 1 1 0 0 0 0 0 1 1 1 2 4 6 4 3 3 4 4 3 3 3
0 0 0 1 1 1 1 2 3 3 3 3 3 3 4 7 7 6 5 6 8 8 8 8 9 7 5 3 3 2 1 0 0 0 0 0 0 1 3 5 5 4 2 4 4 3 3 3 3
0 0 0 1 2 2 1 2 3 3 3 3 2 2 3 4 4 4 5 6 8 10 10 8 6 6 5 4 3 3 1 1 1 0 0 0 1 3 4 4 4 2 3 4 5 4 4 4 4
0 0 0 1 2 2 1 1 3 3 3 3 3 3 4 4 2 2 2 4 5 7 9 7 5 4 5 4 3 3 3 2 2 2 2 3 3 4 5 4 3 2 4 5 6 6 6 6 6
0 0 0 0 1 1 1 2 4 4 3 2 4 5 6 6 4 2 2 3 5 6 8 9 7 6 6 5 4 3 3 3 3 4 6 7 7 6 6 5 4 4 5 6 6 6 6 6 6
0 0 0 0 0 0 1 3 5 4 2 2 3 6 9 9 7 6 5 6 7 6 8 10 10 10 8 7 5 4 4 4 4 7 9 9 9 9 6 5 4 5 6 6 6 6 6 6 6
0 0 0 0 0 0 0 2 4 5 3 2 3 6 10 11 11 10 10 10 9 8 9 11 12 12 10 8 7 7 6 6 6 7 9 9 8 8 6 4 5 6 8 8 8 7 6 6 6
0 0 0 0 0 0 0 1 4 6 5 4 4 7 11 13 13 12 12 12 11 11 11 13 14 15 14 13 11 10 9 8 8 8 8 8 7 6 6 6 7 9 11 11 10 9 6 5 5
0 0 0 0 0 0 0 1 4 7 8 8 7 9 12 12 12 11 11 12 13 13 13 14 15 17 19 18 15 12 11 11 10 10 10 8 7 7 7 8 9 11 12 12 12 11 9 6 5
0 0 0 0 0 0 0 1 3 7 11 11 10 10 11 11 10 10 10 11 12 12 12 13 15 18 21 21 17 13 12 11 11 11 10 8 7 6 7 7 9 11 12 12 12 13 12 10 7
0 0 0 0 0 0 0 0 1 5 10 11 10 9 10 10 10 9 9 9 10 10 11 13 15 18 21 20 18 16 12 9 9 9 9 7 6 6 7 6 7 10 12 12 13 13 13 12 10
0 0 0 0 0 0 0 0 2 5 9 11 10 9 9 10 10 10 8 7 9 10 11 14 17 20 20 18 17 17 14 11 9 9 8 7 6 8 8 7 6 8 11 12 13 13 13 12 12
0 0 0 0 0 0 0 0 4 8 11 12 10 7 8 10 13 13 10 10 11 12 13 15 19 21 20 17 16 17 16 13 11 11 10 9 9 10 10 8 6 6 8 9 10 11 12 13 13
0 0 0 0 0 0 0 2 6 11 12 11 9 7 7 10 14 16 15 15 15 14 15 18 20 21 19 16 16 18 17 14 13 13 12 11 10 10 10 9 7 6 6 7 8 9 11 12 13
0 0 0 0 0 0 0 3 7 9 10 11 10 9 10 12 15 17 18 19 17 16 17 19 20 20 18 16 17 18 15 13 12 13 13 12 11 10 10 10 8 7 6 6 8 10 10 11 12
0 0 0 0 0 0 0 1 4 7 10 10 10 12 14 16 16 17 18 19 17 16 16 16 17 18 18 17 18 15 12 11 10 11 12 12 11 11 11 10 7 6 6 6 8 9 10 10 11
0 0 0 0 0 0 0 0 2 5 8 10 11 12 14 17 18 17 17 17 15 14 14 14 14 15 15 16 16 13 10 9 8 7 8 10 10 10 11 10 6 5 5 6 7 8 9 11 11
0 0 0 0 0 0 0 1 2 5 7 10 13 13 13 16 18 17 16 15 14 13 14 13 13 13 12 14 15 12 9 8 6 5 6 7 8 9 10 9 6 4 4 5 6 8 10 11 12

GEFSSGP_con_prob3kmehi_372.txt.gz
EHI
2 9 21 32 31 16 3 0 0 0 0 0 0 0 0 0 0 0 0 2 6 6 5 7 8 5 4 3 3 3 2 1 2 3 2 1 1 1 0 0 0 0 0 0 0 0 0 0 0
4 14 30 36 26 10 2 0 0 0 0 0 0 0 0 0 0 0 1 3 5 5 5 6 7 6 4 3 3 3 2 1 1 2 2 1 1 1 0 0 0 0 0 0 0 0 0 0 0
12 24 36 32 15 3 0 0 0 0 0 0 0 0 0 0 0 1 2 3 5 5 5 6 7 6 4 3 3 3 2 1 1 1 1 1 1 1 0 0 0 0 0 0 0 0 1 1 1
29 35 34 21 6 0 0 0 0 0 0 0 0 0 0 0 1 2 3 4 5 6 7 8 8 7 5 4 3 2 1 2 2 1 1 1 1 1 0 1 1 1 0 0 0 0 1 2 1
43 38 26 10 2 0 0 0 0 0 0 0 0 0 1 1 2 3 3 4 6 9 10 11 11 8 5 3 3 2 1 1 2 1 1 2 2 1 1 1 1 1 1 1 1 0 1 2 1
43 33 15 3 0 0 0 0 0 0 0 0 0 0 1 2 3 3 2 2 6 11 14 13 13 10 7 5 3 2 1 1 1 2 3 3 2 2 2 2 2 2 3 3 2 1 1 2 1
35 24 9 1 0 0 0 0 0 0 0 0 0 0 1 3 4 3 3 3 5 11 14 13 12 12 11 8 5 4 3 2 2 3 5 6 5 5 5 4 4 5 5 5 5 4 4 3 2
24 15 5 0 0 0 0 0 0 0 0 0 0 0 2 5 5 4 5 6 6 8 10 11 9 10 11 9 8 7 5 3 2 4 7 8 8 7 7 7 8 8 8 8 8 9 8 6 5
13 8 2 0 0 0 0 0 0 0 0 1 1 2 4 5 5 4 4 4 4 5 6 8 8 6 6 7 8 8 6 4 3 4 6 7 7 7 7 8 10 11 11 11 11 11 10 8 8
5 3 0 0 0 0 1 1 1 0 1 3 3 3 3 4 3 3 2 2 2 3 4 6 5 3 2 3 5 7 6 6 5 4 4 4 4 4 4 6 9 12 13 11 10 9 8 8 9
1 0 0 0 1 1 2 2 1 0 2 5 5 4 3 3 3 3 2 2 3 3 4 4 4 3 2 2 4 5 5 5 4 5 5 4 3 4 3 5 8 9 9 8 7 6 7 8 9
0 0 1 1 2 2 2 1 1 0 2 6 7 5 5 4 3 3 4 5 5 5 6 8 9 8 7 6 5 5 5 4 4 7 8 7 6 5 5 6 8 6 5 4 4 5 5 6 8
0 1 2 2 2 1 1 0 0 1 4 7 7 6 5 5 4 5 6 7 8 8 10 14 16 16 15 12 9 7 6 6 7 9 12 12 11 9 9 11 11 7 5 4 4 3 4 5 6
1 2 3 2 1 0 0 1 1 2 6 9 7 5 5 5 6 8 10 10 9 10 14 19 21 22 21 17 12 9 8 9 10 13 16 16 14 14 16 15 12 9 6 6 5 3 2 3 3
2 2 2 1 1 0 1 2 2 3 7 9 8 7 7 8 8 12 14 13 11 13 16 19 21 24 24 19 13 8 7 8 12 17 20 19 17 19 20 17 12 10 8 8 6 4 2 1 1
2 2 1 1 1 0 1 3 3 3 6 9 10 11 12 11 11 14 16 14 13 16 19 19 20 25 25 20 14 10 8 11 15 18 22 22 20 20 19 18 15 13 11 9 7 5 4 2 2
1 1 0 0 0 0 1 2 2 2 5 9 12 14 15 15 15 16 16 15 16 21 24 21 21 25 25 20 16 14 14 16 16 19 22 23 20 18 17 17 17 15 14 12 9 8 9 8 6
0 0 0 0 0 0 1 2 2 1 3 7 11 15 16 17 17 16 15 15 18 24 27 25 23 24 23 20 18 17 17 17 17 19 23 23 19 16 16 17 17 15 14 13 11 11 14 12 11
0 0 0 0 0 0 2 3 2 1 3 8 12 16 19 19 19 17 15 15 18 23 27 26 24 23 22 19 17 17 16 15 16 19 22 22 18 15 16 18 19 16 13 11 12 13 13 11 10
0 0 0 0 0 1 2 4 3 2 5 10 14 18 21 22 21 18 16 14 15 20 25 25 24 23 21 18 17 16 15 15 15 18 22 21 17 14 15 18 18 15 10 8 11 13 11 8 8
0 0 0 0 0 1 2 3 4 4 6 9 12 16 18 20 21 19 16 14 14 18 24 26 27 25 22 20 17 15 15 15 14 17 21 20 16 12 13 15 15 11 7 6 9 11 11 8 7
0 0 0 0 0 0 1 3 4 5 7 9 11 13 13 15 18 19 18 16 15 17 22 27 29 27 25 22 19 15 14 13 12 14 17 19 16 13 13 14 13 9 6 5 6 8 10 10 9
0 0 0 0 0 0 1 2 3 5 8 11 13 12 10 10 14 18 18 16 16 16 21 27 31 30 28 26 22 18 14 11 10 10 13 16 17 15 14 15 13 10 8 7 7 7 9 11 10
0 0 0 0 0 0 1 2 4 5 9 13 14 13 10 9 11 14 16 15 15 16 20 27 33 32 30 28 26 24 19 15 12 12 12 13 15 17 17 17 16 14 12 10 8 7 8 9 8
0 0 0 0 0 0 1 4 8 9 9 12 15 15 12 10 10 12 15 16 15 16 20 30 37 37 33 31 31 31 26 20 16 14 13 12 13 18 21 20 19 18 15 12 9 8 8 7 7
0 0 0 0 0 0 1 6 11 11 9 11 15 15 13 12 11 12 15 17 17 18 23 33 41 42 38 35 35 35 31 25 20 18 17 14 14 17 21 22 21 19 16 12 10 9 8 7 8
0 0 0 0 0 0 2 7 10 8 6 9 12 12 11 10 11 14 18 19 20 23 27 35 43 45 41 37 36 35 33 28 23 21 21 19 16 17 19 20 20 19 16 12 10 9 8 8 8
0 0 0 0 0 0 1 4 6 5 5 7 9 10 10 10 11 16 20 21 21 24 27 34 42 44 41 38 36 35 33 28 24 24 24 22 20 19 17 17 18 19 18 15 11 9 7 7 8
0 0 0 0 0 0 0 2 4 5 6 7 10 13 14 14 14 17 21 21 20 23 27 33 39 41 40 39 38 36 32 27 24 24 23 23 21 18 15 13 14 16 17 15 12 8 6 7 8
0 0 0 0 0 0 0 1 4 7 6 8 12 17 19 18 17 18 21 21 20 22 27 33 37 40 40 41 39 36 32 27 23 22 21 21 20 16 13 11 11 12 14 13 11 8 6 7 8

GEFSSGP_con_prob3kmehi_378.txt.gz
EHI
1 1 1 1 1 0 0 0 0 0 0 0 0 0 0 0 0 0 1 1 1 2 3 5 7 6 5 6 8 6 3 3 3 4 3 2 1 0 0 0 1 1 1 0 1 1 1 0 0
1 2 3 3 2 0 0 0 0 0 0 0 0 0 0 0 0 0 0 0 0 1 2 5 7 6 4 5 6 6 4 3 3 3 3 1 0 0 0 1 2 2 1 0 0 1 0 0 0
4 6 8 6 2 0 0 0 0 0 0 0 0 0 0 0 0 0 0 0 0 0 1 4 7 6 4 3 4 4 4 4 3 2 1 0 0 0 0 1 1 1 1 0 0 1 0 0 1
8 10 10 6 2 0 0 0 0 0 0 0 0 0 0 0 0 1 1 1 0 0 1 4 7 7 4 4 4 3 4 3 2 1 0 0 1 1 1 0 0 0 0 1 2 2 1 1 2
8 10 8 3 1 0 0 0 1 1 1 1 0 0 1 1 1 2 2 1 0 0 1 5 8 8 6 5 5 4 4 3 2 1 0 0 1 2 2 1 0 1 1 2 4 4 3 3 3
8 7 4 1 0 0 0 1 2 2 2 1 0 0 1 2 3 4 3 2 1 0 1 4 7 8 7 6 4 3 4 4 3 1 0 1 2 3 3 2 2 2 3 4 4 4 3 3 3
9 5 1 0 0 0 0 1 2 3 3 2 1 1 1 3 4 6 6 3 1 0 1 2 4 5 5 4 4 4 4 4 4 3 3 3 3 3 3 4 4 4 4 5 5 4 4 4 5
7 3 0 0 0 0 0 1 2 3 4 3 2 3 3 3 5 8 8 5 1 0 0 0 1 1 2 2 3 5 5 5 5 5 5 4 3 2 3 5 6 6 6 8 8 7 6 7 9
4 3 1 0 0 0 1 2 3 4 5 4 4 5 5 5 7 10 10 6 2 0 0 0 0 0 0 0 2 4 5 4 4 3 3 2 1 1 2 5 6 7 8 10 11 9 8 10 11
3 2 1 1 1 1 1 2 3 4 5 6 6 7 6 7 10 13 13 9 4 2 1 1 1 1 0 0 1 2 2 2 1 1 0 0 0 0 1 3 5 5 7 8 8 7 7 8 9
2 2 1 1 1 1 0 1 3 4 5 7 8 8 8 8 11 13 14 11 8 6 4 3 3 3 2 2 3 3 2 0 0 0 0 0 0 0 1 2 3 3 4 4 3 2 2 3 4
1 1 0 0 0 0 0 1 2 4 6 7 9 9 9 9 10 11 11 10 9 8 6 5 5 5 4 5 5 4 2 0 0 0 0 0 1 2 3 3 3 2 2 2 1 0 0 0 1
0 0 0 0 0 0 2 3 4 6 8 9 9 9 9 9 9 9 8 7 7 7 6 7 7 6 4 4 4 4 2 1 1 1 1 2 3 4 4 4 3 3 2 2 2 0 0 0 0
0 0 0 0 0 0 3 6 8 9 10 11 10 9 8 7 7 7 6 6 6 6 7 8 9 7 4 3 3 3 2 2 3 3 3 3 4 5 5 4 3 3 3 2 1 0 0 0 0
0 0 0 0 0 0 3 7 10 12 12 11 10 9 8 7 7 7 7 7 8 9 10 11 10 7 5 4 3 3 3 3 5 6 5 4 4 4 3 3 2 2 2 2 1 0 0 0 0
0 0 0 0 0 1 3 7 10 13 15 13 10 9 10 10 10 10 11 10 9 10 11 12 9 6 4 4 3 3 3 4 6 6 6 5 4 4 2 1 1 1 1 1 1 0 1 1 0
0 0 0 0 0 1 3 5 10 15 17 15 12 11 11 11 11 12 12 11 9 8 8 8 7 5 3 3 3 3 3 4 6 6 6 4 4 3 3 2 1 1 1 2 2 1 2 1 1
1 0 0 0 0 1 1 4 10 17 20 19 17 15 12 10 9 9 8 8 7 6 5 4 4 4 3 3 3 3 3 3 5 6 5 4 3 3 2 2 2 2 2 3 2 2 3 2 1
1 0 0 1 1 1 1 4 11 18 21 22 20 17 11 7 6 5 5 5 5 5 5 4 3 3 3 3 2 2 1 1 3 4 4 4 4 3 2 2 2 2 2 2 2 2 2 2 2
1 0 0 1 2 1 2 4 10 15 19 22 22 17 11 7 5 4 4 4 4 5 6 5 4 3 3 2 1 1 0 0 1 2 3 4 4 3 2 1 1 1 1 1 1 1 1 1 1
0 0 0 1 2 2 1 3 6 11 15 19 21 17 12 9 6 4 4 5 5 6 7 7 6 5 4 3 2 1 1 0 0 1 2 4 4 3 3 2 1 0 0 0 0 0 1 0 0
0 0 0 0 1 1 1 2 4 8 13 18 20 17 13 10 8 6 5 7 8 8 9 9 8 7 7 7 6 4 2 1 0 1 3 3 4 3 3 2 1 0 1 1 0 0 0 0 1
0 0 0 0 0 0 0 1 3 7 11 16 18 17 13 11 10 8 6 8 10 12 12 12 12 11 11 10 8 7 5 3 2 3 4 4 5 4 2 1 0 1 2 2 2 1 1 1 2
0 0 0 0 0 0 0 1 2 5 9 14 16 15 12 11 10 9 8 9 11 14 16 16 16 16 14 12 9 7 7 6 6 6 6 6 5 4 2 1 1 2 3 4 4 4 3 3 3
0 0 0 0 0 0 0 0 1 3 7 11 12 12 11 10 11 11 11 11 12 14 17 18 18 17 17 14 10 7 7 8 8 8 7 6 4 2 1 2 3 3 3 4 5 5 4 3 3
0 0 0 0 0 0 0 0 0 3 7 9 10 9 9 11 13 13 12 13 14 15 17 19 19 18 17 15 10 6 6 7 8 9 8 6 3 1 1 4 5 4 3 3 3 2 2 2 2
0 0 0 0 0 0 0 0 1 5 8 9 8 7 9 12 14 14 13 13 14 15 17 20 21 19 18 17 12 7 6 7 8 9 8 6 4 1 2 4 6 5 4 3 2 1 1 1 1
0 0 0 0 0 0 0 0 3 6 8 8 7 7 9 12 14 15 15 14 14 14 16 19 20 19 18 17 15 11 8 8 9 8 6 5 4 3 2 4 6 6 5 4 3 1 0 0 0
0 0 0 0 0 0 0 1 4 7 8 7 5 5 7 10 13 15 14 12 12 13 15 16 17 18 18 17 15 13 11 10 9 7 4 3 4 3 4 5 6 6 5 4 2 1 0 0 0
0 0 0 0 0 0 0 1 4 7 7 6 4 3 5 9 12 13 12 9 10 13 15 16 16 18 19 17 15 13 12 11 8 5 4 3 3 4 5 6 6 5 4 4 2 0 0 0 0